[[{"header":{"parameterUnit":"m.s-1","parameterCategory":1,"la1":30.2991,"la2":30.254,"lo1":-89.0895,"lo2":-89.0444,"dy":0.0017,"dx":0.0017,"nx":28,"ny":28,"refTime":"2025-11-21T09:00:00:Z","depth":0,"parameterNumber":2,"parameterNumberName":"U-component_of_WINDS"},"data":[0,0,0,0,0,0,0,0,0,0,0,0,0,0,0,0,0,0,0,0,0,0,0,0,0,0,0,0,0,0,0,0,0,0,0,0,0,0,0,0,0,0,0,0,0,0,0,0,0,0,0,0,0,0,0,0,0,0,1.358,1.3581,0,1.3748,1.375,1.3752,1.3822,1.3822,1.3821,1.3821,1.3991,1.3995,1.4,0,0,0,0,0,0,0,0,0,0,0,0,0,1.3316,1.332,1.3579,1.3582,1.3584,1.3748,1.375,1.3753,1.3822,1.3822,1.3821,1.3821,1.3989,1.3995,1.4,0,0,0,0,0,0,0,0,0,0,0,0,0,1.3452,1.3322,1.3579,1.3638,1.3645,1.3748,1.375,1.3753,1.3822,1.3822,1.3821,1.3821,1.3987,1.3994,1.4001,1.4056,0,0,1.4023,1.4027,0,0,0,0,0,0,0,0,1.3444,1.3462,1.3627,1.3634,1.3642,1.3764,1.372,1.3855,1.3822,1.3755,1.3821,1.3821,1.3915,1.3928,1.3961,1.4064,1.4071,1.4024,1.4028,1.4032,1.4034,0,0,0,0,0,0,0,1.3435,1.3455,1.3646,1.363,1.3639,1.3656,1.3675,1.3746,1.3836,1.3761,1.3766,1.3785,1.3919,1.3954,1.3966,1.4074,1.4024,1.403,1.4035,1.4038,1.4234,1.4235,0,0,0,0,0,0,1.3416,1.3446,1.3641,1.3651,1.354,1.3661,1.3682,1.3725,1.3835,1.3852,1.3786,1.3788,1.3942,1.3957,1.3972,1.4046,1.4031,1.4038,1.4042,1.4234,1.4235,1.4236,0,0,0,0,0,0,1.341,1.3432,1.3634,1.3551,1.3577,1.3666,1.3714,1.3729,1.3764,1.3854,1.387,1.3805,1.3942,1.3962,1.4036,1.4052,1.4042,1.4048,1.4232,1.4234,1.4235,1.4192,0,0,0,0,0,0,1.3402,1.343,1.3452,1.355,1.3582,1.3695,1.3715,1.3732,1.3776,1.3781,1.3876,1.3892,1.3943,1.4025,1.4043,1.4062,1.4054,1.4231,1.4233,1.4235,1.4192,1.4192,1.4191,0,0,0,0,0,1.3392,1.3431,1.3452,1.3475,1.3611,1.3696,1.3714,1.3773,1.3777,1.38,1.3859,1.3888,1.4048,1.4032,1.4053,1.4074,1.4231,1.4233,1.4235,1.4193,1.4192,1.4191,0,0,0,0,0,0,1.333,1.3445,1.347,1.3542,1.3609,1.3708,1.3738,1.377,1.3836,1.3837,1.3908,1.3929,1.3997,1.4044,1.4023,1.4135,1.4142,1.4148,1.4103,1.4103,1.4102,1.4089,1.406,0,0,0,0,0,1.3325,1.3385,1.3482,1.3537,1.3569,1.3648,1.3687,1.3728,1.3799,1.3827,1.3891,1.3959,1.4025,1.4066,1.4131,1.42,1.4223,1.4226,1.4225,1.4224,1.4229,1.4271,1.4274,1.4242,1.4242,1.4242,0,0,1.3314,1.3385,1.3418,1.3526,1.3583,1.3644,1.3671,1.3733,1.3779,1.3836,1.3911,1.3961,1.4041,1.4113,1.4148,1.4154,1.4243,1.4227,1.4225,1.423,1.4273,1.4276,1.4279,1.4243,1.4243,1.4243,0,0,1.3327,1.3386,1.3439,1.3496,1.3582,1.3635,1.3647,1.3743,1.3778,1.3855,1.39,1.3956,1.4066,1.4123,1.4166,1.4204,1.4234,1.4223,1.422,1.426,1.4263,1.4265,1.428,1.4285,1.4227,1.4227,1.4227,0,1.3302,1.3396,1.3461,1.3523,1.357,1.3627,1.3682,1.3733,1.3836,1.3867,1.3872,1.4015,1.4073,1.4161,1.417,1.4203,1.422,1.4212,1.4257,1.4261,1.4264,1.4279,1.4284,1.4225,1.4226,1.4226,1.4226,0,1.3363,1.3428,1.3461,1.3561,1.3611,1.3669,1.3743,1.3786,1.3823,1.3875,1.3954,1.4026,1.4108,1.4132,1.4168,1.4226,1.4227,1.4244,1.4251,1.4264,1.428,1.4286,1.4223,1.4223,1.4224,1.4224,0,0,1.3338,1.3477,1.3488,1.3535,1.3636,1.3687,1.3748,1.3831,1.3867,1.3937,1.399,1.4085,1.4102,1.4151,1.4194,1.423,1.4258,1.4243,1.4246,1.4244,1.4328,1.4315,1.4321,1.4279,1.428,1.4281,1.4322,0,1.3365,1.3478,1.354,1.3627,1.3688,1.3745,1.3799,1.3866,1.3918,1.3977,1.4034,1.41,1.4117,1.4148,1.4186,1.4246,1.4275,1.4244,1.433,1.4332,1.4308,1.4329,1.4315,1.435,1.4328,1.4329,1.433,0,1.3411,1.3482,1.3575,1.3673,1.3701,1.3748,1.383,1.3886,1.3965,1.4,1.4057,1.41,1.4167,1.4171,1.4265,1.4242,1.4282,1.4317,1.432,1.433,1.4331,1.434,1.4362,1.4367,1.434,1.4339,1.4339,0,1.3385,1.3504,1.3577,1.3615,1.373,1.3762,1.3811,1.389,1.3936,1.4008,1.4039,1.4117,1.4159,1.4219,1.4283,1.4279,1.4372,1.438,1.4403,1.4402,1.4419,1.4417,1.4448,1.4444,1.4444,1.4444,1.4443,0,1.3409,1.3464,1.3567,1.3611,1.3676,1.3747,1.3808,1.3862,1.3932,1.3988,1.4041,1.4093,1.4174,1.4236,1.4286,1.4358,1.4376,1.4407,1.4419,1.4402,1.4398,1.4429,1.4428,1.4445,1.4445,1.4444,1.4444,0,1.339,1.3461,1.3544,1.3647,1.3675,1.3717,1.3806,1.3851,1.3907,1.3977,1.3998,1.4084,1.416,1.423,1.433,1.4364,1.4437,1.4453,1.4411,1.4418,1.4438,1.4435,1.4489,1.4501,1.4487,1.4487,1.4487,0,1.34,1.3445,1.3554,1.3596,1.3645,1.3711,1.376,1.3833,1.3881,1.3977,1.4011,1.4091,1.4159,1.4278,1.435,1.4428,1.4446,1.446,1.4458,1.444,1.4448,1.4445,1.445,1.4459,1.4458,1.4458,1.4458,0,1.3412,1.3446,1.3514,1.3597,1.3654,1.3721,1.3791,1.3822,1.3908,1.396,1.4039,1.4092,1.4197,1.4276,1.4363,1.4414,1.4451,1.4459,1.4469,1.4451,1.4425,1.4441,1.4409,1.4457,1.4457,1.4457,1.4457,1.4457,1.3409,1.3452,1.3536,1.3612,1.3672,1.3737,1.3786,1.3848,1.3916,1.4007,1.4046,1.4127,1.4208,1.4329,1.4379,1.4444,1.4452,1.4465,1.4469,1.4471,1.4469,1.4415,1.446,1.446,1.446,1.446,1.446,0,1.3424,1.3482,1.3551,1.3648,1.3708,1.3739,1.3818,1.3866,1.3937,1.401,1.4077,1.4169,1.4248,1.4327,1.441,1.4446,1.4466,1.4466,1.4464,1.4475,1.4456,1.444,1.4449,1.4449,1.4449,1.4449,1.4449,1.4449,1.3439,1.3514,1.3559,1.3665,1.3723,1.3804,1.3847,1.3907,1.3966,1.4067,1.4133,1.4185,1.4261,1.435,1.4424,1.4446,1.4474,1.4469,1.4495,1.4476,1.4476,1.4476,1.4462,1.4475,1.4475,1.4509,1.451,1.451]},{"header":{"parameterUnit":"m.s-1","parameterCategory":1,"la1":30.2991,"la2":30.254,"lo1":-89.0895,"lo2":-89.0444,"dy":0.0017,"dx":0.0017,"nx":28,"ny":28,"refTime":"2025-11-21T09:00:00:Z","depth":0,"parameterNumber":3,"parameterNumberName":"V-component_of_WINDS"},"data":[0,0,0,0,0,0,0,0,0,0,0,0,0,0,0,0,0,0,0,0,0,0,0,0,0,0,0,0,0,0,0,0,0,0,0,0,0,0,0,0,0,0,0,0,0,0,0,0,0,0,0,0,0,0,0,0,0,0,0.2424,0.2423,0,0.2297,0.2295,0.2294,0.2229,0.2229,0.2229,0.2229,0.2096,0.2093,0.2089,0,0,0,0,0,0,0,0,0,0,0,0,0,0.2608,0.2605,0.2424,0.2423,0.2421,0.2297,0.2295,0.2293,0.2229,0.2229,0.2229,0.2229,0.2097,0.2093,0.2089,0,0,0,0,0,0,0,0,0,0,0,0,0,0.2509,0.2604,0.2425,0.2374,0.2368,0.2297,0.2295,0.2293,0.2229,0.2229,0.2229,0.2229,0.2099,0.2093,0.2088,0.2057,0,0,0.2072,0.207,0,0,0,0,0,0,0,0,0.2515,0.2503,0.2383,0.2377,0.2371,0.2279,0.2311,0.2214,0.2229,0.2282,0.2229,0.2229,0.2157,0.2147,0.2123,0.2051,0.2045,0.2072,0.2069,0.2066,0.2065,0,0,0,0,0,0,0,0.2522,0.2508,0.2374,0.2381,0.2374,0.2356,0.2342,0.2292,0.2221,0.2277,0.2272,0.2258,0.2153,0.2128,0.2119,0.2043,0.2072,0.2067,0.2064,0.2062,0.1935,0.1935,0,0,0,0,0,0,0.2537,0.2514,0.2378,0.237,0.2444,0.2353,0.2337,0.2308,0.2221,0.2208,0.2258,0.2256,0.2137,0.2125,0.2114,0.207,0.2066,0.2061,0.2058,0.1935,0.1935,0.1935,0,0,0,0,0,0,0.2542,0.2526,0.2383,0.244,0.2421,0.235,0.2318,0.2306,0.228,0.2207,0.2194,0.2246,0.2137,0.2122,0.2071,0.2064,0.2059,0.2054,0.1936,0.1935,0.1935,0.1982,0,0,0,0,0,0,0.2547,0.2528,0.2517,0.2441,0.2418,0.2343,0.2318,0.2303,0.2272,0.2267,0.2192,0.2179,0.2135,0.2079,0.2066,0.2057,0.205,0.1936,0.1936,0.1935,0.1981,0.1984,0.1986,0,0,0,0,0,0.2554,0.2535,0.2516,0.25,0.2403,0.2343,0.233,0.2281,0.2272,0.2259,0.2211,0.2182,0.2067,0.2075,0.2059,0.2049,0.1936,0.1936,0.1935,0.198,0.1983,0.1986,0,0,0,0,0,0,0.2612,0.2524,0.2503,0.2459,0.2409,0.2333,0.2315,0.2286,0.2237,0.2235,0.2174,0.2158,0.2112,0.2075,0.2085,0.2012,0.1999,0.1995,0.2038,0.204,0.2043,0.2053,0.2046,0,0,0,0,0,0.262,0.258,0.2505,0.2474,0.245,0.2387,0.2359,0.2325,0.227,0.2249,0.2198,0.2145,0.2097,0.2067,0.2018,0.1975,0.1956,0.196,0.1962,0.1965,0.1962,0.1933,0.1933,0.1933,0.1933,0.1933,0,0,0.2636,0.2583,0.2561,0.2484,0.2441,0.24,0.237,0.2328,0.2296,0.2242,0.2191,0.2151,0.2088,0.2041,0.2017,0.2009,0.1958,0.1964,0.1966,0.1962,0.1933,0.1933,0.1933,0.1933,0.1933,0.1933,0,0,0.2643,0.26,0.2568,0.2525,0.2461,0.2418,0.241,0.2337,0.2309,0.2257,0.2215,0.2175,0.2094,0.205,0.2017,0.2004,0.1975,0.199,0.2003,0.1976,0.1976,0.1975,0.1969,0.1968,0.1988,0.1988,0.1988,0,0.2671,0.2608,0.2555,0.2514,0.248,0.243,0.2395,0.2356,0.228,0.2256,0.2248,0.2143,0.2097,0.2037,0.2034,0.2009,0.1997,0.1999,0.198,0.1979,0.1978,0.1971,0.1969,0.199,0.199,0.199,0.199,0,0.2644,0.26,0.2582,0.2508,0.2472,0.2435,0.2375,0.2345,0.2313,0.2271,0.2216,0.2159,0.2097,0.208,0.2049,0.2015,0.2011,0.1992,0.1977,0.1981,0.1974,0.1971,0.1993,0.1993,0.1992,0.1991,0,0,0.2686,0.2582,0.2576,0.2541,0.2464,0.2429,0.2388,0.2328,0.2302,0.225,0.2213,0.2144,0.2125,0.2087,0.205,0.2026,0.2017,0.201,0.2007,0.2012,0.1973,0.1987,0.1985,0.1997,0.1996,0.1995,0.1978,0,0.2682,0.2608,0.2558,0.2503,0.246,0.241,0.2374,0.2322,0.2281,0.2238,0.2191,0.2143,0.2123,0.2099,0.2074,0.2024,0.2008,0.2024,0.196,0.1958,0.1977,0.1981,0.1997,0.1983,0.1974,0.1974,0.1974,0,0.2668,0.2616,0.2557,0.2483,0.2463,0.2432,0.2371,0.2331,0.227,0.2241,0.2198,0.2159,0.2112,0.2101,0.2033,0.2045,0.2015,0.1987,0.1985,0.1977,0.1966,0.1972,0.1978,0.1976,0.1969,0.1969,0.1969,0,0.2703,0.2619,0.2572,0.2543,0.2456,0.2435,0.2397,0.2336,0.2302,0.2248,0.2224,0.2165,0.2133,0.2087,0.2033,0.203,0.197,0.1955,0.1943,0.1944,0.1933,0.1934,0.1933,0.1915,0.1915,0.1915,0.1915,0,0.2703,0.2669,0.2586,0.2557,0.2516,0.2457,0.2417,0.2375,0.2321,0.2281,0.2233,0.2197,0.2128,0.2082,0.2039,0.1988,0.1974,0.1948,0.1937,0.1952,0.1955,0.1932,0.1931,0.1914,0.1915,0.1915,0.1915,0,0.2736,0.268,0.2625,0.2545,0.2524,0.2497,0.2429,0.2397,0.2353,0.2303,0.2288,0.2217,0.216,0.2101,0.2025,0.1995,0.1946,0.1931,0.1967,0.196,0.1951,0.1953,0.1934,0.1928,0.1916,0.1916,0.1916,0,0.274,0.2712,0.2629,0.2599,0.2563,0.2516,0.248,0.242,0.2385,0.2311,0.2288,0.2228,0.2177,0.2088,0.2029,0.1969,0.1952,0.1949,0.1943,0.1958,0.195,0.1952,0.1948,0.1952,0.1952,0.1953,0.1953,0,0.2752,0.2725,0.2676,0.2617,0.2575,0.2526,0.2474,0.2452,0.2381,0.2343,0.2285,0.2245,0.2166,0.2106,0.2038,0.1997,0.1962,0.1955,0.1949,0.1964,0.1986,0.1972,0.1972,0.1956,0.1956,0.1956,0.1955,0.1955,0.277,0.2741,0.2678,0.2624,0.2579,0.2531,0.2497,0.2447,0.2398,0.2329,0.2296,0.2237,0.2173,0.2079,0.2038,0.1989,0.198,0.1971,0.1969,0.1967,0.197,0.1994,0.1977,0.1977,0.1977,0.1976,0.1976,0,0.2778,0.2735,0.2686,0.2614,0.2571,0.2542,0.2482,0.2448,0.2397,0.2341,0.2291,0.2222,0.2162,0.2098,0.2034,0.2007,0.1989,0.1992,0.1993,0.1984,0.1984,0.1995,0.2008,0.2008,0.2008,0.2008,0.2008,0.2008,0.2778,0.2728,0.2693,0.2618,0.2574,0.2516,0.2484,0.2439,0.2393,0.2319,0.2269,0.2227,0.2166,0.2097,0.2041,0.2023,0.2001,0.2008,0.1986,0.1987,0.1984,0.1982,0.1992,0.2004,0.2004,0.199,0.199,0.199]}]]